#timestamp,LO_Frequency,Hit,StdDev 
1609390815.6,286046999.0,N
1609390835.4,286046999.3,N
1609390855.3,286046999.3,N
1609390875.1,286046998.9,N
1609390895.9,286046998.9,N
1609390915.7,286046999.3,N
1609390935.5,286046998.6,N
1609390955.4,286046998.3,N
1609390975.2,286046999.4,N
1609390995.0,286046998.4,N
1609390995.9,286046998.4,N
1609391015.8,286046998.7,N
1609391035.6,286047000.5,N
1609391055.4,286046998.3,N
1609391075.3,286046999.1,N
1609391095.1,286046999.1,N
1609391115.9,286046998.4,N
1609391135.7,286047001.1,N
1609391155.5,286047000.9,N
1609391175.4,286047000.7,N
1609391195.2,286047000.5,N
1609391215.0,286047001.9,N
1609391216.0,286047001.9,N
1609391235.8,286046999.8,N
1609391255.6,286047000.5,N
1609391275.5,286047000.2,N
1609391295.3,286047000.6,N
1609391315.1,286046998.6,N
1609391335.9,286046998.2,N
1609391355.7,286046998.6,N
1609391375.5,286047000.8,N
1609391395.4,286047001.1,N
1609391415.2,286047000.5,N
1609391435.1,286047000.1,N
1609391436.0,286047000.1,N
1609391455.8,286047000.8,N
1609391475.6,286047000.6,N
1609391495.5,286046998.2,N
1609391515.3,286047000.9,N
1609391535.1,286047000.6,N
1609391555.9,286047000.6,N
1609391575.7,286047000.4,N
1609391595.6,286047000.3,N
1609391615.4,286047000.0,N
1609391635.2,286047000.0,N
1609391655.1,286047002.4,N
1609391656.0,286047002.4,N
1609391675.8,286047002.2,N
1609391695.6,286047000.2,N
1609391715.5,286047000.8,N
1609391735.3,286047000.0,N
1609391755.2,286047001.7,N
1609391775.9,286047002.6,N
1609391795.7,286047001.6,N
1609391815.6,286047002.8,N
1609391835.4,286046999.8,N
1609391855.2,286046998.1,N
1609391875.1,286047000.2,N
1609391876.0,286047000.2,N
1609391895.8,286046999.9,N
1609391915.7,286047000.6,N
1609391935.5,286047002.0,N
1609391955.3,286047003.7,Y
1609391975.2,286047002.5,P
1609391995.0,286047000.2,N
1609391995.9,286047000.2,N
1609392015.8,286047000.0,N
1609392035.6,286047002.7,N
1609392055.4,286047002.1,N
1609392075.3,286047002.2,N
1609392095.1,286047004.1,Y
1609392115.8,286047000.3,P
1609392135.7,286047000.2,N
1609392155.5,286047002.1,P
1609392175.4,286047000.8,N
1609392195.2,286047001.1,N
1609392215.0,286047000.8,N
1609392215.9,286047000.8,N
1609392235.8,286046998.1,Y
1609392255.6,286046999.1,P
1609392275.5,286046999.2,N
1609392295.3,286046999.5,N
1609392315.1,286046999.4,N
1609392335.9,286046999.4,N
1609392355.7,286046999.3,N
1609392375.5,286046998.9,N
1609392395.4,286047000.5,N
1609392415.2,286047001.1,N
1609392435.1,286046999.3,N
1609392436.0,286046999.3,N
1609392455.8,286046999.3,N
1609392475.6,286046999.0,N
1609392495.5,286046998.4,N
1609392515.3,286046999.9,N
1609392535.1,286047001.2,N
1609392555.9,286046999.9,N
1609392575.7,286047000.5,N
1609392595.6,286046998.9,N
1609392615.4,286046996.8,Y
1609392635.2,286046997.0,P
1609392655.1,286046997.3,N
1609392656.0,286046997.3,N
1609392675.8,286046997.0,N
1609392695.7,286046999.9,N
1609392715.5,286047000.1,N
1609392735.3,286046996.9,N
1609392755.2,286046999.0,N
1609392775.0,286047001.1,N
1609392775.9,286047001.1,N
1609392795.7,286047001.1,N
1609392815.6,286046998.1,N
1609392835.4,286046999.9,N
1609392855.3,286047000.5,N
1609392875.1,286047000.5,N
1609392876.0,286047000.5,N
1609392895.8,286046998.5,N
1609392915.7,286046998.1,N
1609392935.5,286047000.0,N
1609392955.3,286047001.1,N
1609392975.2,286046999.1,N
1609392995.0,286046998.8,N
1609392995.9,286046998.8,N
1609393015.8,286046999.6,N
1609393035.6,286046997.7,N
1609393055.4,286046997.7,N
1609393075.3,286046997.0,N
1609393095.1,286047000.8,N
1609393115.8,286046998.2,N
1609393135.7,286046999.6,N
1609393155.5,286046999.3,N
1609393175.4,286046999.2,N
1609393195.2,286046999.1,N
1609393215.0,286046996.9,N
1609393215.9,286046996.9,N
1609393235.8,286046997.3,N
1609393255.6,286046997.2,N
1609393275.5,286046995.2,Y
1609393295.3,286046996.8,P
1609393315.1,286046999.5,N
1609393335.9,286046996.6,N
1609393355.7,286046999.2,N
1609393375.5,286047000.3,N
1609393395.4,286047000.7,N
1609393415.2,286047000.5,N
1609393435.0,286047002.6,N
1609393436.0,286047002.6,N
1609393455.8,286047004.2,N
1609393475.6,286047002.1,N
1609393495.5,286047002.7,N
1609393515.3,286047000.0,N
1609393535.1,286047001.4,N
1609393555.9,286047003.5,N
1609393575.7,286047002.1,N
1609393595.5,286047000.7,N
1609393615.4,286047004.3,N
1609393635.2,286047002.3,N
1609393655.1,286047002.7,N
1609393656.0,286047002.7,N
1609393675.8,286047001.7,N
1609393695.6,286047004.2,N
1609393715.5,286047004.1,N
1609393735.3,286047003.8,N
1609393755.1,286047004.4,N
1609393775.9,286047004.4,N
1609393795.7,286047004.4,N
1609393815.6,286046999.7,N
1609393835.4,286046999.9,N
1609393855.2,286046999.7,N
1609393875.1,286047002.0,N
1609393876.0,286047002.0,N
1609393895.8,286047002.3,N
1609393915.6,286047002.7,N
1609393935.5,286046999.7,N
1609393955.3,286046999.8,N
1609393975.2,286047000.1,N
1609393995.9,286047002.3,N
1609394015.7,286047001.5,N
1609394035.6,286047001.3,N
1609394055.4,286047004.3,N
1609394075.2,286047003.1,N
1609394095.1,286047005.4,Y
1609394096.0,286047005.4,P
1609394115.8,286047000.0,N
1609394135.7,286047000.2,N
1609394155.5,286047000.0,N
1609394175.3,286047000.2,N
1609394195.2,286047000.9,N
1609394215.0,286047000.3,N
1609394215.9,286047000.3,N
1609394235.7,286047001.7,N
1609394255.6,286047000.5,N
1609394275.4,286047002.8,N
1609394295.3,286046998.2,N
1609394315.1,286046998.1,N
1609394316.0,286046998.1,N
1609394335.8,286046999.1,N
1609394355.7,286046998.4,N
1609394375.5,286046999.4,N
1609394395.3,286046999.2,N
